{"data":{"norad_id":66104,"epoch":"2026-09-20T06:13:56.026272Z","epoch_age_seconds":121171,"freshness":"FRESH","line1":"1 66104U 25236U   26263.25967623  .00017483  00000+0  52737-3 0  9993","line2":"2 66104  53.1572 276.6023 0001318  98.4551 261.6601 15.34398738 52788","mean_motion":15.34398738,"eccentricity":0.0001318,"inclination_deg":53.1572,"raan_deg":276.6023,"arg_perigee_deg":98.4551,"mean_anomaly_deg":261.6601,"bstar":0.00052737,"rev_number":5278,"period_min":93.847835268488,"perigee_km":461.8053679016,"apogee_km":463.60861437766,"semimajor_km":6840.8439911396,"source":"CELESTRAK","updated_at":"2026-09-21T09:00:35.803981Z"}}